Location: Tucson
(32.2217°N, 110.9265°W)
Time: 02:53:16
(UTC-07:00)

OTV 5 (USA 277) - Visible Passes

Search period start: 24 March 2019 00:00
Search period end: 03 April 2019 00:00
Orbit: 315 x 320 km, 54.5° (Epoch: 14 March)

Date Brightness Start Highest point End Pass type
(mag) Time Alt. Az. Time Alt. Az. Time Alt. Az.
29 Mar ? 05:12:49 10° S 05:14:59 22° SE 05:17:11 10° ENE visible
30 Mar ? 05:27:20 14° SW 05:29:35 87° NW 05:32:17 10° NE visible
31 Mar ? 04:11:12 11° E 04:11:12 11° E 04:11:26 10° E visible
31 Mar ? 05:42:07 10° W 05:44:20 23° NW 05:46:35 10° NNE visible
01 Apr ? 04:25:51 26° ENE 04:25:51 26° ENE 04:27:19 10° NE visible
02 Apr ? 04:40:21 28° N 04:40:21 28° N 04:41:59 10° NNE visible
